Location: Palomar Mountain Lodge
(33.3110°N, 116.8495°W)
Time: 03:26:31
(UTC-08:00)

CZ-2C R/B - Pass Details

Date: 12 July 2018
Orbit: 784 x 871 km, 98.3° (Epoch: 18 December)

Event Time Altitude Azimuth Distance (km) Brightness Sun altitude
Rises 22:04:21 0° 29° (NNE) 3,292 6.0 -21.7°
Reaches altitude 10° 22:07:10 10° 43° (NE) 2,350 5.1 -22.1°
Enters shadow 22:09:46 20° 71° (ENE) 1,727 4.1 -22.5°
